This demonstration page uses our WeatherBlox Daily Observations layout. Learn more.

Left ArrowRight Arrow

Hourly Observations for October 22, 2016

Temp ( °F °C ) Dew Point ( °F °C ) Humidity (%) Winds ( mph kmh ) Pressure ( in mb ) Visibility ( mi km ) Precip ( " mm )
12:51 am 00:51 Clear 62 16.7 43 6.1 50 50 ESE 8 13 29.94 1014 10 16 0.00 0.00
1:51 am 01:51 Clear 61 16.1 43 6.1 52 52 ESE 6 9 29.94 1014 10 16 0.00 0.00
2:51 am 02:51 Clear 61 16.1 43 6.1 52 52 ESE 8 13 29.93 1014 10 16 0.00 0.00
3:51 am 03:51 Clear with Light Rain 62 16.7 42 5.6 48 48 E 9 15 29.92 1013 10 16 0.00 0.03
4:51 am 04:51 Clear 62 16.7 42 5.6 48 48 SE 9 15 29.93 1014 10 16 0.00 0.03
5:51 am 05:51 Clear 61 16.1 41 5 48 48 SE 14 22 29.96 1015 10 16 0.00 0.00
6:51 am 06:51 Sunny 60 15.6 42 5.6 52 52 SSE 12 19 29.99 1016 10 16 0.00 0.00
7:51 am 07:51 Sunny 65 18.3 42 5.6 43 43 SE 15 24 30.01 1016 10 16 0.00 0.00
8:51 am 08:51 Sunny 70 21.1 42 5.6 37 37 SE 12 19 30.01 1016 10 16 0.00 0.00
9:51 am 09:51 Sunny 73 22.8 43 6.1 34 34 SE 9 15 30.00 1016 10 16 0.00 0.00
10:51 am 10:51 Sunny 77 25 44 6.7 31 31 SSE 6 9 29.98 1015 10 16 0.00 0.00
11:51 am 11:51 Sunny 79 26.1 44 6.7 29 29 VRB 6 9 29.95 1014 10 16 0.00 0.00
12:51 pm 12:51 Sunny 83 28.3 44 6.7 25 25 VRB 3 6 29.90 1013 10 16 0.00 0.00
1:51 pm 13:51 Sunny 85 29.4 43 6.1 23 23 S 7 11 29.87 1012 10 16 0.00 0.00
2:51 pm 14:51 Sunny 86 30 42 5.6 21 21 Calm 29.85 1011 10 16 0.00 0.00
3:51 pm 15:51 Sunny 86 30 42 5.6 21 21 VRB 3 6 29.84 1010 10 16 0.00 0.00
4:51 pm 16:51 Sunny 84 28.9 43 6.1 24 24 WSW 6 9 29.83 1010 10 16 0.00 0.00
5:51 pm 17:51 Clear 79 26.1 45 7.2 30 30 WNW 3 6 29.84 1011 10 16 0.00 0.00
6:51 pm 18:51 Clear with Light Rain 72 22.2 44 6.7 37 37 NNW 6 9 29.87 1012 10 16 0.00 0.03
7:51 pm 19:51 Clear 69 20.6 43 6.1 39 39 N 5 7 29.88 1012 10 16 0.00 0.03
8:51 pm 20:51 Clear 66 18.9 43 6.1 43 43 N 7 11 29.89 1012 10 16 0.00 0.00
9:51 pm 21:51 Clear 65 18.3 44 6.7 47 47 ESE 6 9 29.91 1013 10 16 0.00 0.00
10:51 pm 22:51 Clear 63 17.2 43 6.1 48 48 Calm 29.91 1013 10 16 0.00 0.00
11:51 pm 23:51 Clear 63 17.2 41 5 45 45 SE 6 9 29.92 1013 10 16 0.00 0.00

Powered by AerisWeather